User: anonymous   Login
Location: Finkenwalde
(53.3770°N, 14.6418°E)
Time: 12:52:21
(UTC+00:00)
Language:

Cosmos 1943 Rocket - Orbit

View from above orbital plane
View from above orbital plane
View from above satellite
View from above satellite

Ground track
Ground track

The orbit data is extracted from the following two-line orbital elements,

1 19120U 88039B   23151.90343107  .00000130  00000-0  84364-4 0  9993
2 19120  71.0161  49.5727 0019721  93.9218 266.4162 14.19316476814661
Epoch (UTC): 31 May 2023 21:40:56
Eccentricity: 0.0019721
inclination: 71.0161°
perigee height: 813 km
apogee height: 842 km
right ascension of ascending node: 49.5727°
argument of perigee: 93.9218°
revolutions per day: 14.19316476
mean anomaly at epoch: 266.4162°
orbit number at epoch: 81466

The dashed part of the orbit path shows where the satellite is in the earth's shadow,  

DLR